STARLINK-11445 [DTC] (62414 NORAD) Tracking and Keplerian Element Data

This shows tracking and keplerian element data for the satellite.

Feedback or suggestion? Click here.




ElementValue
Catalog62414
NameSTARLINK-11445 [DTC]
Epoch Orbit663
Epoch Day34.13275522
Epoch Year2025
RAAN56.6938
Inclination42.9997
Eccentricity0.0001317
Argument of Perigee270.2351
Mean Anonmoly89.8368
Mean Motion15.77856089
Decay Rate7.24E-06
L11 62414U 24249F 25034.13275522 .00000724 00000+0 70260-5 0 9991
L22 62414 42.9997 56.6938 0001317 270.2351 89.8368 15.77856089 6631



Live tracking and technical data element details for STARLINK-11445 [DTC] (NORAD 62414). STARLINK-11445 [DTC] can be tracked NOW for your location showing map with azimuth and elevation plus other details from your city location.







IsCatalogInMostPopularTable: catalog: 62414, numindb: 24
Update: records affected: 1



GetName: 62414 STARLINK-11445 [DTC]

Hit Count: updated at: Mon, 19 May 2025 02:34:44 GMT